Back to catalog

STARLINK-35252

AliveCommunicationsVLEO
NORAD 65850·PAYLOAD·🇺🇸 United States

Launched Sep 29, 2025 from Vandenberg Space Force Base

Loading…

Next Passes (next 24 hours)

TLE

FreshSource: CelesTrak SupGP

Epoch: Sep 14, 2026, 21:35 UTC

1 65850C 25221AD  26257.89979167  .00039757  00000+0  11748-2 0  2574
2 65850  53.1564 288.0091 0001144  95.2507 245.8503 15.34366848    12

Track STARLINK-35252 in real time with AllMySat

Download on the App Store